TimeEDT,TemperatureF,Dew PointF,Humidity,Sea Level PressureIn,VisibilityMPH,Wind Direction,Wind SpeedMPH,Gust SpeedMPH,PrecipitationIn,Events,Conditions,WindDirDegrees,DateUTC
12:54 AM,23.0,16.0,74,30.00,10.0,WSW,4.6,-,N/A,,Overcast,240,2013-03-23 04:54:00
1:54 AM,21.9,16.0,78,30.00,10.0,West,3.5,-,N/A,,Overcast,260,2013-03-23 05:54:00
2:54 AM,23.0,16.0,74,29.99,10.0,West,4.6,-,N/A,,Overcast,270,2013-03-23 06:54:00
3:24 AM,23.0,15.8,74,29.89,10.0,West,4.6,-,N/A,,Overcast,270,2013-03-23 07:24:00
3:54 AM,21.9,17.1,82,29.98,10.0,WSW,4.6,-,N/A,,Overcast,240,2013-03-23 07:54:00
4:54 AM,23.0,17.1,78,29.97,10.0,WSW,3.5,-,N/A,,Overcast,240,2013-03-23 08:54:00
5:54 AM,23.0,17.1,78,29.98,10.0,Calm,Calm,-,N/A,,Overcast,0,2013-03-23 09:54:00
6:54 AM,23.0,17.1,78,29.99,10.0,West,3.5,-,N/A,,Overcast,270,2013-03-23 10:54:00
7:54 AM,23.0,17.1,78,29.99,9.0,West,4.6,-,N/A,,Overcast,260,2013-03-23 11:54:00
9:54 AM,26.1,18.0,71,30.01,10.0,NW,8.1,-,N/A,,Overcast,310,2013-03-23 13:54:00
10:14 AM,26.6,17.6,69,29.93,10.0,WNW,8.1,-,N/A,,Overcast,300,2013-03-23 14:14:00
10:54 AM,28.0,18.0,66,30.02,10.0,WNW,11.5,-,N/A,,Mostly Cloudy,300,2013-03-23 14:54:00
11:54 AM,28.9,19.0,67,30.02,10.0,WNW,10.4,-,N/A,,Mostly Cloudy,300,2013-03-23 15:54:00
12:32 PM,30.2,19.4,64,29.92,10.0,West,10.4,-,N/A,,Partly Cloudy,280,2013-03-23 16:32:00
12:54 PM,33.1,19.9,59,30.01,10.0,WNW,12.7,-,N/A,,Mostly Cloudy,290,2013-03-23 16:54:00
1:08 PM,32.0,19.4,60,29.92,10.0,WNW,10.4,-,N/A,,Mostly Cloudy,300,2013-03-23 17:08:00
1:54 PM,34.0,19.0,54,29.99,10.0,NW,11.5,16.1,N/A,,Overcast,310,2013-03-23 17:54:00
2:54 PM,35.1,18.0,50,29.98,10.0,NW,12.7,-,N/A,,Partly Cloudy,310,2013-03-23 18:54:00
3:54 PM,37.0,19.0,48,29.97,10.0,WNW,11.5,-,N/A,,Clear,290,2013-03-23 19:54:00
4:54 PM,37.0,19.0,48,29.97,10.0,WNW,16.1,-,N/A,,Clear,300,2013-03-23 20:54:00
5:54 PM,36.0,19.0,50,29.99,10.0,WNW,15.0,23.0,N/A,,Scattered Clouds,300,2013-03-23 21:54:00
6:54 PM,34.0,19.0,54,30.00,10.0,NW,16.1,-,N/A,,Clear,320,2013-03-23 22:54:00
7:54 PM,30.9,18.0,59,30.01,10.0,North,9.2,-,N/A,,Clear,350,2013-03-23 23:54:00
8:54 PM,28.0,18.0,66,30.03,10.0,NNW,5.8,-,N/A,,Clear,340,2013-03-24 00:54:00
9:54 PM,27.0,17.1,66,30.03,10.0,North,4.6,-,N/A,,Clear,10,2013-03-24 01:54:00
10:54 PM,26.1,17.1,69,30.03,10.0,North,6.9,-,N/A,,Clear,360,2013-03-24 02:54:00
11:54 PM,25.0,17.1,72,30.02,10.0,North,5.8,-,N/A,,Clear,360,2013-03-24 03:54:00